Tracking 26933 objects as of 5-Feb-2023
HD Live streaming from Space Station
objects crossing your sky now

CARTOSAT 2D

Track CARTOSAT 2D now!
10-day predictions


NORAD ID: 41948
Int'l Code: 2017-008A
Perigee: 511.4 km
Apogee: 518.8 km
Inclination: 97.4 °
Period: 94.8 minutes
Semi major axis: 6886 km
RCS: Unknown
Launch date: February 15, 2017
Source: India (IND)
Launch site: SRIHARIKOTA (SRI)
Your satellite tracking list
Your tracking list is empty




NASA's NSSDC Master Catalog

Two Line Element Set (TLE):
1 41948U 17008A   23035.79600828  .00004586  00000-0  22055-3 0  9995
2 41948  97.4352  97.3285 0005368 237.9907 122.0747 15.19283567331075
Source of the keplerian elements: AFSPC